This is the latest recevied weather packets stored in our database for station/object JS2WAD-13. If no packets are shown the sender has not sent any weather packets the latest 1 day(s).
| Time | Temp. | Humidity | Pressure | Rain* | Wind** | Luminosity | Snow |
|---|---|---|---|---|---|---|---|
| 1836274784 | 25.56° C | 80% | 904.4 hPa | 0 mm | 0 m/s | 70 W/m² | - |
| 1836274484 | 25.56° C | 80% | 904.4 hPa | 0 mm | 0 m/s | 88 W/m² | - |
| 1836274334 | 25.56° C | 80% | 904.2 hPa | 0 mm | 0 m/s | 76 W/m² | - |
| 1836274184 | 25.56° C | 81% | 904.7 hPa | 0 mm | 0 m/s | 74 W/m² | - |
| 1836273884 | 25.56° C | 81% | 904.8 hPa | 0 mm | 0 m/s | 120 W/m² | - |
| 1778034981 | 17.78° C | 87% | 911.7 hPa | 0 mm | 0.89 m/s, 42° | 84 W/m² | - |
| 1778034681 | 17.78° C | 87% | 911.8 hPa | 0 mm | 0.45 m/s, 41° | 86 W/m² | - |
| 1778034381 | 17.78° C | 86% | 911.8 hPa | 0 mm | 0.45 m/s, 41° | 74 W/m² | - |
| 1778034081 | 17.78° C | 88% | 911.8 hPa | 0 mm | 0.45 m/s, 42° | 70 W/m² | - |
| 1778033781 | 17.78° C | 88% | 912.1 hPa | 0 mm | 0.45 m/s, 41° | 58 W/m² | - |
| 1778033481 | 17.78° C | 88% | 912.2 hPa | 0 mm | 0.45 m/s, 41° | 74 W/m² | - |
| 1778033181 | 17.78° C | 88% | 912.2 hPa | 0 mm | 0.45 m/s, 41° | 47 W/m² | - |
| 1778032881 | 17.78° C | 87% | 912.1 hPa | 0 mm | 0.45 m/s, 41° | 40 W/m² | - |
| 1778032581 | 17.22° C | 86% | 912.1 hPa | 0 mm | 0.45 m/s, 41° | 37 W/m² | - |
| 1778032281 | 17.22° C | 85% | 912 hPa | 0 mm | 0 m/s | 56 W/m² | - |
| 1778031981 | 17.22° C | 86% | 912 hPa | 0 mm | 0 m/s | 91 W/m² | - |
| 1778031681 | 17.22° C | 85% | 912 hPa | 0 mm | 0.45 m/s, 41° | 142 W/m² | - |
| 1778031381 | 17.22° C | 86% | 912.2 hPa | 0 mm | 0.45 m/s, 41° | 83 W/m² | - |
| 1778031081 | 17.22° C | 87% | 912.1 hPa | 0 mm | 0.89 m/s, 40° | 98 W/m² | - |
| 1778030781 | 17.22° C | 85% | 912.2 hPa | 0 mm | 0.89 m/s, 33° | 120 W/m² | - |
| 1778030481 | 17.22° C | 86% | 912.1 hPa | 0 mm | 0.45 m/s, 37° | 125 W/m² | - |
| 1778030181 | 17.78° C | 85% | 912.2 hPa | 0 mm | 0 m/s | 105 W/m² | - |
| 1778029881 | 17.78° C | 86% | 912.3 hPa | 0 mm | 0 m/s | 77 W/m² | - |
| 1778029581 | 17.78° C | 86% | 912.3 hPa | 0 mm | 0 m/s | 60 W/m² | - |
| 1778029281 | 17.78° C | 85% | 912.4 hPa | 0 mm | 0 m/s | 44 W/m² | - |
* Rain latest hour (hover to see other rain measurements)
** Current wind speed in m/s (hover to see current wind gust speed)